Jilin-1 GaoFen 03D 16 xing

operational
NORAD ID: 51834 Int'l Des: 2022-019 Owner: CGSTL Country: CN Constellation: jilin-1
LEOCIRCULARRETROGRADE

About Jilin-1 GaoFen 03D 16 xing

Description loading...

Live Position

Loading 3D Globe...

Upcoming Passes

Altitude History

Altitude vs Time

uPlot chart will show altitude changes over time

Two-Line Element Set

1 51834U 22019L 26062.20634617 .00256257 00000-0 11725-2 0 9995
2 51834 97.3706 156.2766 0003963 190.2782 169.8407 15.83044167223548
Epoch: Mar 3, 2026 • Age: 12 hours

Current Status

Altitude 329.6 km
Velocity 7.72 km/s
Sub-Earth Point 55.26°N, 12.85°E
Launch Date Feb 27, 2022
Age 4 years
Type earth observation

Technical Details

Classification Payload
Mass 43.00 kg
Dry Mass 43.00 kg
Total Mass 43.00 kg
Length 1.50 m
Diameter 1.00 m
Span 1.50 m
Shape Box
Manufacturer CGSTL
Bus Type JL-1
Phase Status In Orbit
Owner/State CGSTL/CN

Large Constellations

Loading constellations...